(°C)
-2°
-2°
-2°
-2°
-2°
-1°
(°C)
-6°
-6°
-6°
-6°
-6°
-5°
-5°
NY
NY
NDN
NDN
DNy
DDN
DDN
(km/h)
8-13
7-12
7-10
7-10
8-10
9-12
10-15
(mm)
0
0
0
0
0
0
0
(%)
0
0
0
0
0
0
0

Napfelkelte

/ -31.8°
sun-icon
UV 1
07:24
17:22
Hold (fogyó félhold) (244°)
20:13
13:34

METAR 53.5°É 50.15°K (UWWW)-ért

Idő Feltételek Hőmérséklet/
Harmatpont
Szél Látási viszonyok Időjárás Felhők Légnyomás Módosítás Nyers
VFR -2°C / -4°C 290º 4kt >10km - Clouds and Visibility OK 1027 No Significant change UWWW 252330Z 29002MPS CAVOK M02/M04 Q1027 R33/CLRD60 NOSIG RMK QFE759/1012
VFR -2°C / -4°C 290º 6kt >10km - Clouds and Visibility OK 1027 No Significant change UWWW 252300Z 29003MPS CAVOK M02/M04 Q1027 R33/CLRD60 NOSIG RMK QFE759/1012
VFR -2°C / -4°C 290º 6kt >10km - Clouds and Visibility OK 1027 No Significant change UWWW 252230Z 29003MPS CAVOK M02/M04 Q1027 R33/CLRD60 NOSIG RMK QFE759/1012
VFR -3°C / -5°C 270º variable 240º to 310º 6kt >10km - Clouds and Visibility OK 1026 No Significant change UWWW 252200Z 27003MPS 240V310 CAVOK M03/M05 Q1026 R33/CLRD60 NOSIG RMK QFE759/1012
VFR -4°C / -6°C 240º 4kt >10km - Clouds and Visibility OK 1026 No Significant change UWWW 252130Z 24002MPS CAVOK M04/M06 Q1026 R33/CLRD60 NOSIG RMK QFE759/1012
VFR -2°C / -5°C 290º variable 250º to 320º 6kt >10km - Clouds and Visibility OK 1026 No Significant change UWWW 252100Z 29003MPS 250V320 CAVOK M02/M05 Q1026 R33/CLRD60 NOSIG RMK QFE758/1011
VFR -1°C / -5°C 300º 8kt >10km - Clouds and Visibility OK 1025 No Significant change UWWW 252030Z 30004MPS CAVOK M01/M05 Q1025 R33/CLRD60 NOSIG RMK QFE758/1011
VFR -1°C / -4°C 300º 8kt >10km - Clouds and Visibility OK 1025 No Significant change UWWW 252000Z 30004MPS CAVOK M01/M04 Q1025 R33/CLRD60 NOSIG RMK QFE758/1011
VFR -1°C / -5°C 320º 10kt >10km - Clouds and Visibility OK 1025 No Significant change UWWW 251930Z 32005MPS CAVOK M01/M05 Q1025 R33/CLRD60 NOSIG RMK QFE758/1011
VFR 0°C / -4°C 330º 12kt >10km - Few Clouds 3300ft 1025 No Significant change UWWW 251900Z 33006MPS 9999 FEW033 00/M04 Q1025 R33/CLRD60 NOSIG RMK QFE758/1010
VFR 0°C / -4°C 330º 12kt >10km - Scattered Clouds 2600ft 1024 No Significant change UWWW 251830Z 33006MPS 9999 SCT026 00/M04 Q1024 R33/CLRD60 NOSIG RMK QFE758/1010
VFR 1°C / -5°C 330º 8kt >10km - Scattered Clouds 2600ft 1024 No Significant change UWWW 251800Z 33004MPS 9999 SCT026 01/M05 Q1024 R33/CLRD60 NOSIG RMK QFE757/1010
MVFR 1°C / -5°C 350º 10kt >10km - Broken Clouds 3000ft 1024 No Significant change UWWW 251730Z 35005MPS 9999 BKN030 01/M05 Q1024 R33/CLRD60 NOSIG RMK QFE757/1010
MVFR 1°C / -5°C 330º 10kt >10km - Broken Clouds 2700ft 1024 No Significant change UWWW 251700Z 33005MPS 9999 BKN027 01/M05 Q1024 R33/CLRD60 NOSIG RMK QFE757/1010
MVFR 2°C / -5°C 350º variable 320º to 020º 14kt >10km - Broken Clouds 2800ft 1023 No Significant change. Runway 33: Damp, 51-100% contamination with <1mm, friction coefficient 0.55. UWWW 251630Z 35007MPS 320V020 9999 BKN028 02/M05 Q1023 R33/190055 NOSIG RMK QFE757/1009
MVFR 2°C / -4°C 330º variable 300º to 360º 10kt Gust 19kt >10km - Broken Clouds 2300ft 1023 No Significant change. Runway 33: Damp, 51-100% contamination with <1mm, friction coefficient 0.55. UWWW 251600Z 33005G10MPS 300V360 9999 BKN023 02/M04 Q1023 R33/190055 NOSIG RMK QFE756/1009
MVFR 2°C / -4°C 350º 14kt >10km - Broken Clouds 2100ft 1022 No Significant change. Runway 33: Damp, 51-100% contamination with <1mm, friction coefficient 0.55. UWWW 251530Z 35007MPS 9999 BKN021 02/M04 Q1022 R33/190055 NOSIG RMK QFE756/1008
MVFR 2°C / -4°C 340º 16kt >10km - Broken Clouds 2100ft 1022 No Significant change. Runway 33: Damp, 51-100% contamination with <1mm, friction coefficient 0.55. UWWW 251500Z 34008MPS 9999 BKN021 02/M04 Q1022 R33/190055 NOSIG RMK QFE756/1008
MVFR 2°C / -3°C 340º 16kt >10km - Broken Clouds 1800ft 1021 No Significant change. Runway 33: Damp, 51-100% contamination with <1mm, friction coefficient 0.55. UWWW 251430Z 34008MPS 9999 BKN018 02/M03 Q1021 R33/190055 NOSIG RMK QFE755/1007
MVFR 2°C / -2°C 330º 19kt >10km - Broken Clouds 1600ft 1021 No Significant change. Runway 33: Damp, 51-100% contamination with <1mm, friction coefficient 0.55. UWWW 251400Z 33010MPS 9999 BKN016 02/M02 Q1021 R33/190055 NOSIG RMK QFE755/1006
MVFR 3°C / -1°C 330º 17kt. Wind Shear present on Runway 33. >10km - Broken Clouds 1300ft 1020 No Significant change. Runway 33: Damp, 51-100% contamination with <1mm, friction coefficient 0.55. UWWW 251330Z 33009MPS 9999 BKN013 03/M01 Q1020 WS R33 R33/190055 NOSIG RMK QFE754/1006
MVFR 3°C / 0°C 330º 21kt >10km - Broken Clouds 1300ft 1019 No Significant change. Runway 33: Damp, 51-100% contamination with <1mm, friction coefficient 0.55. UWWW 251300Z 33011MPS 9999 BKN013 03/M00 Q1019 R33/190055 NOSIG RMK QFE754/1005
MVFR 4°C / 0°C 330º 19kt >10km - Broken Clouds 1500ft 1019 No Significant change. Runway 33: Wet or puddles, 51-100% contamination with 1mm, friction coefficient 0.50. UWWW 251230Z 33010MPS 9999 BKN015 04/M00 Q1019 R33/290150 NOSIG RMK QFE753/1004
IFR 4°C / 1°C 320º 16kt >10km - Broken Clouds 900ft 1018 No Significant change. Runway 33: Wet or puddles, 51-100% contamination with 1mm, friction coefficient 0.50. UWWW 251200Z 32008MPS 9999 BKN009 04/01 Q1018 R33/290150 NOSIG RMK QFE753/1004

VFR

-2°C / -4°C

[Több]
Szél 290º 4kt
Látási viszonyok >10km
Időjárás -
Felhők Clouds and Visibility OK
Légnyomás 1027
Módosítás No Significant change
Nyers UWWW 252330Z 29002MPS CAVOK M02/M04 Q1027 R33/CLRD60 NOSIG RMK QFE759/1012

VFR

-2°C / -4°C

[Több]
Szél 290º 6kt
Látási viszonyok >10km
Időjárás -
Felhők Clouds and Visibility OK
Légnyomás 1027
Módosítás No Significant change
Nyers UWWW 252300Z 29003MPS CAVOK M02/M04 Q1027 R33/CLRD60 NOSIG RMK QFE759/1012

VFR

-2°C / -4°C

[Több]
Szél 290º 6kt
Látási viszonyok >10km
Időjárás -
Felhők Clouds and Visibility OK
Légnyomás 1027
Módosítás No Significant change
Nyers UWWW 252230Z 29003MPS CAVOK M02/M04 Q1027 R33/CLRD60 NOSIG RMK QFE759/1012

VFR

-3°C / -5°C

[Több]
Szél 270º variable 240º to 310º 6kt
Látási viszonyok >10km
Időjárás -
Felhők Clouds and Visibility OK
Légnyomás 1026
Módosítás No Significant change
Nyers UWWW 252200Z 27003MPS 240V310 CAVOK M03/M05 Q1026 R33/CLRD60 NOSIG RMK QFE759/1012

VFR

-4°C / -6°C

[Több]
Szél 240º 4kt
Látási viszonyok >10km
Időjárás -
Felhők Clouds and Visibility OK
Légnyomás 1026
Módosítás No Significant change
Nyers UWWW 252130Z 24002MPS CAVOK M04/M06 Q1026 R33/CLRD60 NOSIG RMK QFE759/1012

VFR

-2°C / -5°C

[Több]
Szél 290º variable 250º to 320º 6kt
Látási viszonyok >10km
Időjárás -
Felhők Clouds and Visibility OK
Légnyomás 1026
Módosítás No Significant change
Nyers UWWW 252100Z 29003MPS 250V320 CAVOK M02/M05 Q1026 R33/CLRD60 NOSIG RMK QFE758/1011

VFR

-1°C / -5°C

[Több]
Szél 300º 8kt
Látási viszonyok >10km
Időjárás -
Felhők Clouds and Visibility OK
Légnyomás 1025
Módosítás No Significant change
Nyers UWWW 252030Z 30004MPS CAVOK M01/M05 Q1025 R33/CLRD60 NOSIG RMK QFE758/1011

VFR

-1°C / -4°C

[Több]
Szél 300º 8kt
Látási viszonyok >10km
Időjárás -
Felhők Clouds and Visibility OK
Légnyomás 1025
Módosítás No Significant change
Nyers UWWW 252000Z 30004MPS CAVOK M01/M04 Q1025 R33/CLRD60 NOSIG RMK QFE758/1011

VFR

-1°C / -5°C

[Több]
Szél 320º 10kt
Látási viszonyok >10km
Időjárás -
Felhők Clouds and Visibility OK
Légnyomás 1025
Módosítás No Significant change
Nyers UWWW 251930Z 32005MPS CAVOK M01/M05 Q1025 R33/CLRD60 NOSIG RMK QFE758/1011

VFR

0°C / -4°C

[Több]
Szél 330º 12kt
Látási viszonyok >10km
Időjárás -
Felhők Few Clouds 3300ft
Légnyomás 1025
Módosítás No Significant change
Nyers UWWW 251900Z 33006MPS 9999 FEW033 00/M04 Q1025 R33/CLRD60 NOSIG RMK QFE758/1010

VFR

0°C / -4°C

[Több]
Szél 330º 12kt
Látási viszonyok >10km
Időjárás -
Felhők Scattered Clouds 2600ft
Légnyomás 1024
Módosítás No Significant change
Nyers UWWW 251830Z 33006MPS 9999 SCT026 00/M04 Q1024 R33/CLRD60 NOSIG RMK QFE758/1010

VFR

1°C / -5°C

[Több]
Szél 330º 8kt
Látási viszonyok >10km
Időjárás -
Felhők Scattered Clouds 2600ft
Légnyomás 1024
Módosítás No Significant change
Nyers UWWW 251800Z 33004MPS 9999 SCT026 01/M05 Q1024 R33/CLRD60 NOSIG RMK QFE757/1010

MVFR

1°C / -5°C

[Több]
Szél 350º 10kt
Látási viszonyok >10km
Időjárás -
Felhők Broken Clouds 3000ft
Légnyomás 1024
Módosítás No Significant change
Nyers UWWW 251730Z 35005MPS 9999 BKN030 01/M05 Q1024 R33/CLRD60 NOSIG RMK QFE757/1010

MVFR

1°C / -5°C

[Több]
Szél 330º 10kt
Látási viszonyok >10km
Időjárás -
Felhők Broken Clouds 2700ft
Légnyomás 1024
Módosítás No Significant change
Nyers UWWW 251700Z 33005MPS 9999 BKN027 01/M05 Q1024 R33/CLRD60 NOSIG RMK QFE757/1010

MVFR

2°C / -5°C

[Több]
Szél 350º variable 320º to 020º 14kt
Látási viszonyok >10km
Időjárás -
Felhők Broken Clouds 2800ft
Légnyomás 1023
Módosítás No Significant change. Runway 33: Damp, 51-100% contamination with <1mm, friction coefficient 0.55.
Nyers UWWW 251630Z 35007MPS 320V020 9999 BKN028 02/M05 Q1023 R33/190055 NOSIG RMK QFE757/1009

MVFR

2°C / -4°C

[Több]
Szél 330º variable 300º to 360º 10kt Gust 19kt
Látási viszonyok >10km
Időjárás -
Felhők Broken Clouds 2300ft
Légnyomás 1023
Módosítás No Significant change. Runway 33: Damp, 51-100% contamination with <1mm, friction coefficient 0.55.
Nyers UWWW 251600Z 33005G10MPS 300V360 9999 BKN023 02/M04 Q1023 R33/190055 NOSIG RMK QFE756/1009

MVFR

2°C / -4°C

[Több]
Szél 350º 14kt
Látási viszonyok >10km
Időjárás -
Felhők Broken Clouds 2100ft
Légnyomás 1022
Módosítás No Significant change. Runway 33: Damp, 51-100% contamination with <1mm, friction coefficient 0.55.
Nyers UWWW 251530Z 35007MPS 9999 BKN021 02/M04 Q1022 R33/190055 NOSIG RMK QFE756/1008

MVFR

2°C / -4°C

[Több]
Szél 340º 16kt
Látási viszonyok >10km
Időjárás -
Felhők Broken Clouds 2100ft
Légnyomás 1022
Módosítás No Significant change. Runway 33: Damp, 51-100% contamination with <1mm, friction coefficient 0.55.
Nyers UWWW 251500Z 34008MPS 9999 BKN021 02/M04 Q1022 R33/190055 NOSIG RMK QFE756/1008

MVFR

2°C / -3°C

[Több]
Szél 340º 16kt
Látási viszonyok >10km
Időjárás -
Felhők Broken Clouds 1800ft
Légnyomás 1021
Módosítás No Significant change. Runway 33: Damp, 51-100% contamination with <1mm, friction coefficient 0.55.
Nyers UWWW 251430Z 34008MPS 9999 BKN018 02/M03 Q1021 R33/190055 NOSIG RMK QFE755/1007

MVFR

2°C / -2°C

[Több]
Szél 330º 19kt
Látási viszonyok >10km
Időjárás -
Felhők Broken Clouds 1600ft
Légnyomás 1021
Módosítás No Significant change. Runway 33: Damp, 51-100% contamination with <1mm, friction coefficient 0.55.
Nyers UWWW 251400Z 33010MPS 9999 BKN016 02/M02 Q1021 R33/190055 NOSIG RMK QFE755/1006

MVFR

3°C / -1°C

[Több]
Szél 330º 17kt. Wind Shear present on Runway 33.
Látási viszonyok >10km
Időjárás -
Felhők Broken Clouds 1300ft
Légnyomás 1020
Módosítás No Significant change. Runway 33: Damp, 51-100% contamination with <1mm, friction coefficient 0.55.
Nyers UWWW 251330Z 33009MPS 9999 BKN013 03/M01 Q1020 WS R33 R33/190055 NOSIG RMK QFE754/1006

MVFR

3°C / 0°C

[Több]
Szél 330º 21kt
Látási viszonyok >10km
Időjárás -
Felhők Broken Clouds 1300ft
Légnyomás 1019
Módosítás No Significant change. Runway 33: Damp, 51-100% contamination with <1mm, friction coefficient 0.55.
Nyers UWWW 251300Z 33011MPS 9999 BKN013 03/M00 Q1019 R33/190055 NOSIG RMK QFE754/1005

MVFR

4°C / 0°C

[Több]
Szél 330º 19kt
Látási viszonyok >10km
Időjárás -
Felhők Broken Clouds 1500ft
Légnyomás 1019
Módosítás No Significant change. Runway 33: Wet or puddles, 51-100% contamination with 1mm, friction coefficient 0.50.
Nyers UWWW 251230Z 33010MPS 9999 BKN015 04/M00 Q1019 R33/290150 NOSIG RMK QFE753/1004

IFR

4°C / 1°C

[Több]
Szél 320º 16kt
Látási viszonyok >10km
Időjárás -
Felhők Broken Clouds 900ft
Légnyomás 1018
Módosítás No Significant change. Runway 33: Wet or puddles, 51-100% contamination with 1mm, friction coefficient 0.50.
Nyers UWWW 251200Z 32008MPS 9999 BKN009 04/01 Q1018 R33/290150 NOSIG RMK QFE753/1004

TAF 53.5°É 50.15°K (UWWW)-ért

From till


Maximum Temperature 3ºC on . Minimum Temperature -2ºC on .
From till Wind 270º 6kt. Gust 17kt. Visibility 6000m. Broken Clouds 1600ft.
Temporarly from till Visibility 305.775m. freezing Fog . Obscured Sky.
Temporarly from till Wind 230º 17kt. Gust 29kt.
Becoming from till Wind 230º 6kt. Gust 17kt. Visibility 6000m. Broken Clouds 1600ft.

Nyers: TAF UWWW 252253Z 2600/2624 27003G09MPS 6000 BKN016 TX03/2611Z TNM02/2603Z TEMPO 2600/2605 0300 FZFG VV002 TEMPO 2605/2616 23009G15MPS BECMG 2616/2618 23003G09MPS

Aktuális műholdas és esőképek ezen a helyen: 53.5°É 50.15°K

A helyszín jelölő a következő helyen van elhelyezve: 53.5°É 50.15°K. [Több]

A valós idejű műholdas kép ötvözi a nappali látható fényt az éjszakai infravörös sugárzással. Éjjel a kép nem sötét, mivel az infravörös sugárzás képes érzékelni a hőmérséklet-különbségeket. Sajnos az alacsony felhőket és a ködöt nehéz megkülönböztetni a talaj hőmérsékletétől, így az éjszaka folyamán szinte láthatatlanok lehetnek. A Meteosat európai műholdképei valós időben frissülnek minden 5 percben. A GOES-16/GOES-17 (Észak- és Dél-Amerika) és Himawari (Ázsia) képei 10 percenként frissülnek.

Minden jog fenntartva 2021 EUMETSAT / meteoblue. / Minden jog fenntartva 2021 meteoblue

Radarkép és ultrarövid távú csapadék-előrejelzés a következő helyhez: 53.5°É 50.15°K

Szitáló eső
Enyhe
Mérsékelt
Erős
Nagyon nehéz
Jégeső

A helyzetjelző helye: 53.5°É 50.15°K. Ez az animáció bemutatja a csapadékradart az elmúlt órára vonatkozóan, valamint előrejelzést az elkövetkező 1 órára. A szitáló eső vagy enyhe hóesés láthatatlan lehet a radar számára. A csapadék intenzitása színkóddal van jelölve, a világoskéktől a narancssárgáig.